User: anonymous
Location: The Top Of The Sky Mini Observatory
(41.4300°N, 81.2300°W)
Time: 03:42:18
(UTC-04:00)
Language:

Iridium 86 - Orbit

View from above orbital plane
View from above orbital plane
View from above satellite
View from above satellite

Ground track
Ground track

The orbit data is extracted from the following two-line orbital elements,

1 25528U 98066B   14112.44429142  .00000348  00000-0  11730-3 0  9383
2 25528 086.3926 111.3398 0002444 108.6238 251.5224 14.34218170814281
Epoch (UTC): 22 April 2014 10:39:46
Eccentricity: 0.0002444
inclination: 86.3926°
perigee height: 776 km
apogee height: 779 km
right ascension of ascending node: 111.3398°
argument of perigee: 108.6238°
revolutions per day: 14.34218170
mean anomaly at epoch: 251.5224°
orbit number at epoch: 81428

The dashed part of the orbit path shows where the satellite is in the earth's shadow,  

DLR